Wind_Speed
43 41 38 36 33 31 28 26 25 24 21 20 20 17 15 15 12 10 8 7 6 5 4 4 3 4 6 7 8 11 12 14
50 47 45 42 39 35 31 30 30 29 27 24 24 23 21 20 17 16 14 13 11 10 9 10 10 10 10 11 12 11 12 14
55 52 48 46 42 39 36 34 32 32 31 28 28 27 23 25 25 21 19 19 19 16 15 15 15 15 14 15 16 18 18 18
59 53 54 48 46 43 39 35 34 33 33 34 33 31 29 24 26 29 26 27 27 23 22 21 20 21 20 19 19 21 24 23
62 57 57 53 49 46 42 39 38 37 37 39 36 34 32 29 30 33 33 33 32 30 29 29 27 25 26 25 24 24 27 27
64 61 58 56 54 52 50 47 45 42 41 39 39 35 32 33 35 33 33 35 35 36 36 34 33 32 31 31 28 28 29 30
68 66 60 58 58 57 54 53 46 45 45 41 42 38 34 36 37 37 38 39 39 39 39 39 38 38 36 34 35 32 33 32
66 68 62 64 61 60 59 55 49 49 49 46 43 42 40 40 42 42 43 43 42 41 42 42 42 41 39 38 37 37 37 37
61 63 66 66 64 62 64 58 54 52 51 51 46 46 47 44 44 44 45 46 45 45 45 45 44 44 42 42 41 40 40 40
62 61 64 64 63 63 61 60 58 55 53 52 50 50 50 46 45 46 48 48 47 47 48 47 48 45 45 45 44 43 43 43
69 68 67 63 61 59 60 59 58 56 55 55 54 53 52 50 48 48 50 50 49 49 48 50 51 48 49 49 46 46 45 45
70 71 68 64 64 64 64 60 58 57 57 56 56 55 54 53 52 52 51 52 50 50 51 52 52 50 52 53 50 49 48 48
77 77 73 72 69 67 65 64 63 61 59 60 60 57 55 55 54 54 55 55 53 51 53 53 52 51 54 54 53 52 51 51
66 70 72 73 71 71 72 68 67 61 62 63 60 61 60 59 56 55 56 57 55 53 56 54 52 52 53 55 55 55 53 54
71 71 73 74 75 76 74 71 70 68 68 61 65 62 59 60 56 56 57 57 57 57 57 56 58 56 55 54 55 56 57 56
73 73 73 70 71 73 72 75 74 73 69 71 67 66 70 70 67 65 60 60 60 62 59 59 61 59 56 54 56 57 58 58
79 71 72 73 74 73 71 73 74 73 75 72 67 68 63 63 64 63 64 61 61 62 61 61 62 61 56 56 58 59 60 59
78 83 74 77 77 76 74 72 72 73 74 74 73 76 68 68 65 63 61 60 60 61 63 61 62 59 56 57 59 59 61 60
75 76 77 76 79 78 76 74 73 72 72 72 72 71 74 74 69 68 66 62 64 66 63 62 61 59 57 58 60 61 63 63
Wind_Direction
250 252 251 253 253 254 262 265 268 269 265 267 265 265 263 267 267 274 275 281 285 291 303 303 305 304 315 317 315 309 299 293
249 248 250 250 252 254 257 261 265 266 267 263 261 261 260 263 263 264 269 272 269 268 282 290 297 304 310 316 320 318 315 310
247 247 249 250 251 253 254 259 263 263 263 262 257 255 253 259 264 266 267 266 268 266 271 277 285 290 295 297 301 305 304 306
246 248 250 249 251 253 254 255 256 256 259 260 260 260 264 262 265 264 261 260 268 273 273 277 279 284 286 286 290 296 295 298
246 246 249 250 251 253 252 250 252 257 258 262 264 261 259 258 259 262 264 266 268 270 270 277 279 279 282 282 286 288 292 293
244 246 247 249 250 249 249 249 248 249 256 262 265 263 258 253 256 261 264 264 266 267 269 271 276 279 280 283 283 285 287 290
240 243 245 247 249 250 250 251 253 255 256 255 260 261 255 254 257 259 261 264 264 264 265 268 271 274 277 280 285 286 285 287
244 245 244 247 248 250 251 251 252 256 260 259 259 259 253 253 255 257 259 261 264 268 267 266 268 270 274 277 280 284 285 286
245 246 246 247 249 249 252 253 253 253 257 260 259 255 255 256 256 257 259 261 262 264 266 268 269 270 272 274 278 280 282 284
244 245 244 246 248 251 251 252 253 253 253 255 257 255 255 256 256 257 260 262 262 262 267 269 270 272 272 272 275 277 279 281
249 247 243 243 246 247 249 250 251 252 251 251 252 253 255 255 254 254 256 259 258 261 264 269 272 271 272 273 274 276 277 279
245 246 245 246 246 249 249 247 247 247 248 249 249 250 251 253 253 252 253 256 256 258 262 266 268 268 268 271 273 273 277 277
245 244 247 248 250 251 249 249 248 246 245 247 247 247 249 250 251 251 250 251 253 255 259 262 264 263 264 267 270 272 275 275
250 249 248 247 249 247 247 248 250 247 246 244 245 245 245 247 248 248 249 250 251 252 255 260 263 263 263 265 268 272 273 273
248 249 249 249 247 247 249 248 245 247 248 244 244 244 243 245 246 247 250 250 251 252 254 258 260 261 262 264 267 269 271 271
247 247 249 252 252 250 249 249 250 248 248 249 246 246 246 247 249 252 251 250 250 252 255 256 257 258 262 264 266 267 269 269
255 248 249 250 250 251 248 249 250 248 249 249 248 248 247 248 249 250 250 248 250 253 254 257 257 258 262 263 265 267 268 269
254 255 251 250 248 249 250 249 249 249 249 248 247 248 246 246 247 249 250 251 251 252 254 254 256 258 260 263 263 264 267 270
254 254 255 255 253 251 251 252 252 251 251 250 249 247 248 248 249 248 249 249 249 251 250 251 253 256 259 259 262 263 266 269
Height
5859 5861 5864 5865 5867 5869 5870 5872 5873 5874 5876 5877 5877 5878 5879 5879 5880 5880 5880 5880 5880 5880 5879 5879 5880 5880 5879 5879 5878 5876 5875 5874
5849 5853 5855 5858 5860 5863 5866 5866 5867 5868 5870 5872 5873 5873 5874 5876 5877 5877 5878 5878 5878 5878 5878 5877 5877 5877 5876 5875 5875 5874 5873 5872
5838 5842 5846 5850 5853 5855 5858 5861 5862 5862 5863 5865 5866 5867 5869 5871 5872 5874 5874 5875 5875 5875 5875 5875 5874 5874 5873 5872 5871 5871 5870 5868
5828 5834 5835 5841 5845 5848 5851 5854 5854 5856 5858 5858 5859 5861 5863 5865 5867 5867 5868 5869 5869 5871 5871 5871 5871 5870 5870 5868 5867 5867 5866 5865
5819 5822 5826 5832 5836 5839 5842 5845 5846 5848 5850 5850 5854 5856 5856 5858 5858 5859 5861 5862 5864 5865 5865 5865 5865 5865 5864 5864 5862 5862 5861 5860
5808 5813 5816 5821 5825 5827 5831 5833 5836 5839 5842 5844 5844 5847 5850 5850 5849 5851 5853 5855 5856 5857 5858 5859 5859 5859 5859 5857 5857 5856 5855 5854
5794 5798 5805 5808 5811 5815 5819 5823 5829 5829 5831 5836 5836 5839 5841 5841 5842 5843 5844 5845 5847 5848 5850 5851 5852 5852 5852 5851 5849 5850 5849 5847
5783 5785 5793 5794 5799 5803 5805 5812 5817 5819 5821 5824 5828 5828 5831 5831 5833 5834 5834 5836 5838 5840 5841 5842 5843 5844 5844 5843 5843 5842 5841 5840
5771 5775 5778 5782 5785 5790 5793 5799 5804 5807 5809 5812 5816 5818 5819 5822 5823 5824 5825 5826 5828 5829 5831 5833 5834 5835 5835 5835 5835 5834 5833 5832
5758 5760 5763 5768 5772 5777 5782 5786 5789 5794 5798 5800 5803 5806 5807 5811 5813 5814 5814 5816 5817 5818 5820 5822 5823 5826 5826 5826 5826 5825 5824 5823
5742 5745 5748 5753 5758 5763 5767 5773 5776 5781 5785 5788 5790 5793 5796 5799 5799 5801 5803 5805 5807 5807 5810 5811 5811 5815 5815 5815 5816 5815 5815 5814
5727 5726 5731 5739 5744 5748 5754 5759 5764 5768 5772 5776 5779 5782 5784 5786 5788 5789 5792 5794 5796 5797 5799 5800 5802 5803 5803 5804 5805 5804 5804 5803
5704 5710 5717 5723 5729 5732 5737 5743 5749 5754 5758 5762 5766 5769 5771 5773 5776 5779 5780 5782 5784 5787 5788 5789 5791 5792 5792 5793 5793 5793 5793 5793
5687 5694 5701 5706 5710 5714 5720 5727 5730 5736 5740 5745 5750 5754 5757 5760 5763 5766 5768 5770 5772 5774 5776 5778 5779 5780 5780 5780 5782 5782 5782 5781
5672 5680 5684 5687 5693 5697 5702 5707 5713 5717 5723 5728 5734 5738 5742 5745 5748 5752 5755 5757 5760 5762 5764 5766 5766 5767 5768 5769 5770 5770 5770 5770
5664 5665 5668 5671 5674 5680 5686 5690 5697 5703 5707 5712 5719 5723 5726 5730 5734 5737 5741 5743 5746 5749 5751 5752 5752 5754 5756 5757 5757 5757 5758 5758
5632 5646 5649 5654 5654 5660 5667 5675 5679 5686 5690 5696 5701 5707 5711 5713 5716 5720 5724 5729 5731 5733 5736 5738 5739 5741 5744 5744 5745 5745 5746 5746
5613 5617 5629 5629 5635 5642 5648 5656 5662 5667 5674 5677 5682 5689 5693 5697 5701 5705 5709 5713 5717 5719 5722 5725 5726 5729 5730 5731 5732 5733 5734 5735
5591 5596 5603 5610 5615 5628 5637 5641 5646 5651 5656 5660 5663 5669 5675 5681 5685 5689 5694 5698 5701 5704 5708 5710 5712 5714 5716 5718 5719 5720 5720 5721